Location: Bittelbronn
(48.4454°N, 8.5870°E)
Time: 14:30:10
(UTC+00:00)

Cosmos 1953 - Pass Details

Date: 17 August 2024
Orbit: 504 x 523 km, 82.5° (Epoch: 18 September)

Event Time Altitude Azimuth Distance (km) Brightness Sun altitude
Exits shadow 03:07:57 17° 220° (SW) 1,352 3.7 -11.7°
Maximum altitude 03:10:33 41° 285° (WNW) 761 2.7 -11.3°
Drops below altitude 10° 03:14:14 10° 357° (N) 1,768 5.3 -10.8°
Sets 03:16:29 0° 4° (N) 2,666 6.4 -10.5°
